Other Public Products
Issued by NWS Grand Forks, ND

Home | Current Version | Previous Version | Graphics & Text | Print | Product List | Glossary On
Versions: 1 2 3 4 5 6 7 8 9 10 11 12 13 14 15 16 17 18 19 20 21 22 23 24 25 26 27 28 29 30 31 32 33 34 35 36 37 38 39 40 41 42 43 44 45 46 47 48 49 50
000
FPUS83 KFGF 282010
OPUFGF
PRAIRIE TO PINES WEATHER ROUNDUP
NATIONAL WEATHER SERVICE EASTERN NORTH DAKOTA/GRAND FORKS ND
300 PM CDT TUE JUL 28 2015

 **SATELLITE DATA USED TO AUGMENT SKY COVER AT AUTOMATED STATIONS**
 *****  WEATHER ACROSS EASTERN NORTH DAKOTA  *****

CITY           SKY/WX    TMP DP  RH WIND       PRES   REMARKS
GRAND FORKS    PTSUNNY   76  55  48 SW22G33   29.62R
GRAND FORKS AF PTSUNNY   76  55  48 SW28G37   29.63R
GRAND CITY NWS   N/A     77 N/A N/A W14         N/A
BUXTON         NOT AVBL
DEVILS LAKE    CLOUDY    72  52  49 SW26G43   29.59S
FARGO          MOSUNNY   79  56  45 SW22G31   29.71R
WAHPETON ARPT  CLEAR     77  54  44 SW17G29   29.77R
$$

 *****  WEATHER ACROSS CENTRAL AND WESTERN NORTH DAKOTA  *****

CITY           SKY/WX    TMP DP  RH WIND       PRES   REMARKS
JAMESTOWN      PTSUNNY   75  52  44 SW25G37   29.70F
BISMARCK       PTSUNNY   73  50  44 W36G49    29.74R
MINOT          LGT RAIN  67  49  52 SW31G53   29.52R
MINOT AFB      CLOUDY    68  54  61 SW35G45   29.48S
GARRISON         N/A     64  52  64 W26G38    29.62R
WILLISTON      LGT RAIN  62  53  72 W38G49    29.59R
DICKINSON      CLOUDY    64  47  53 W43G58    29.78R
HETTINGER      CLOUDY    65  46  50 W37G53    29.90R
$$

 *****  OTHER OBSERVATIONS NORTHEAST NORTH DAKOTA  *****

CITY           SKY/WX    TMP DP  RH WIND       PRES   REMARKS
WALHALLA       FAIR      73  55  53 MISG      29.54S
LANGDON        MOCLDY    75  54  46 SW30      29.56S
CAVALIER       FAIR      75  55  50 SW22G33   29.55S
GRAFTON        FAIR      75  57  53 SW28      29.59S
CANDO          NOT AVBL
FORT TOTTEN      N/A     70  52  53 SW17      29.95
ROLLA          CLOUDY    66  55  68 SW28G38   29.50F
RUGBY          NOT AVBL
 ***** THE ABOVE OBSERVATIONS ARE NON NWS ARE NOT QUALITY
        CONTROLLED AND MAY MIS-REPORT RAIN FOR SNOW...
$$

 *****  OTHER OBSERVATIONS SOUTHEAST NORTH DAKOTA *****

CITY           SKY/WX    TMP DP  RH WIND       PRES   REMARKS
COOPERSTOWN    NOT AVBL
VALLEY CITY    NOT AVBL
OAKES            N/A     77  55  47 SW22G33   29.78R
GWINNER        FAIR      75  55  50 W23G33    29.78R
SHEYENNE NWR     N/A     78  57  47 W18       29.95S
BUFFALO        NOT AVBL
WYNDMERE         N/A     79  57  47 SW17        N/A
 ***** THE ABOVE OBSERVATIONS ARE NON NWS ARE NOT QUALITY
       CONTROLLED AND MAY MIS-REPORT RAIN FOR SNOW...
$$

  *****  WEATHER ACROSS NORTHERN MINNESOTA  *****

CITY           SKY/WX    TMP DP  RH WIND       PRES   REMARKS
FLAG ISLAND    MOSUNNY   79  66  65 S13G21    29.56S
WARROAD        MOSUNNY   81  70  69 S13G25    29.58F
ROSEAU         MOSUNNY   81  68  65 S22       29.58R
HALLOCK        MOSUNNY   77  61  57 SW23G33   29.56S
THF RVR FALLS  PTSUNNY   73  61  64 SW18G29   29.65R
HALSTAD        NOT AVBL
FOSSTON        MOSUNNY   75  64  69 SW21G28   29.71R
BAUDETTE       PTSUNNY   78  67  68 S18G26    29.62S
WASKISH        PTSUNNY   79  72  78 S9        29.67S
CROOKSTON      PTSUNNY   75  61  60 SW22G28   29.66R
$$
  *****  WEATHER ACROSS CENTRAL AND WEST MINNESOTA  *****

CITY           SKY/WX    TMP DP  RH WIND       PRES   REMARKS
BEMIDJI        MOSUNNY   80  64  59 SW20G29   29.71R
PARK RAPIDS    MOSUNNY   82  64  54 SW18G26   29.75R
WADENA         MOSUNNY   81  64  57 SW17G26   29.76S
DETROIT LAKES  SUNNY     77  59  53 SW15G23   29.76S
MOORHEAD       MOSUNNY   77  57  50 SW15G25   29.73R
FERGUS FALLS   SUNNY     77  61  57 W18       29.77R
ELBOW LAKE     FAIR      77  62  60 W14       29.80R
MORRIS MN      SUNNY     79  61  53 W15G22    29.80R
STAPLES        PTSUNNY   79  66  65 SW21      29.78R
WHEATON        SUNNY     73  57  56 SW13G23   29.82R
$$
  *****  WEATHER ELSEWHERE ACROSS MINNESOTA  *****

CITY           SKY/WX    TMP DP  RH WIND       PRES   REMARKS
DULUTH         CLOUDY    83  68  60 SW17G31   29.79R
INTRNTL FALLS  CLOUDY    78  70  76 S10G22    29.66F
ELY            MOSUNNY   81  66  61 SW12G22   29.76S
CLOQUET        CLOUDY    82  66  57 SW14      29.80R
BRAINERD       CLOUDY    81  68  64 S14G23    29.78S
HIBBING        CLOUDY    79  66  64 SW10G23   29.77R
ALEXANDRIA     CLOUDY    78  68  71 W16       29.81S
SAINT CLOUD    CLOUDY    80  70  71 S14       29.81R
MINNEAPOLIS    PTSUNNY   83  69  62 SW14G22   29.82S
$$

  *****  WEATHER ACROSS SOUTH DAKOTA  *****

CITY           SKY/WX    TMP DP  RH WIND       PRES   REMARKS
SIOUX FALLS    MOSUNNY   79  62  56 NW16G24   29.89R
BROOKINGS      SUNNY     75  59  57 W23       29.90R
WATERTOWN      SUNNY     76  57  51 W21G26    29.87S
HURON          SUNNY     78  55  44 W18G28    29.89R
SISSETON         N/A     77  56  48 W24G35    29.79R
ABERDEEN       SUNNY     79  52  38 W26G35    29.83R
MITCHELL       SUNNY     79  56  45 NW16      29.92S
PIERRE         SUNNY     82  45  27 W23G38    29.92R
MOBRIDGE       MOSUNNY   77  51  40 W26G40    29.83S
RAPID CITY     MOSUNNY   76  42  29 NW16      30.03R
$$

  *****  SOME WEATHER IN NEARBY STATES *****

CITY           SKY/WX    TMP DP  RH WIND       PRES   REMARKS
GLASGOW MT     LGT RAIN  57  53  86 W30G43    29.83R
GREAT FALLS MT PTSUNNY   73  37  27 W15G22    30.11S
CHEYENNE WY    SUNNY     81  30  15 W13G24    30.18S
SCOTTSBLUFF NE SUNNY     79  31  17 N12       30.12S
OMAHA NE       LGT RAIN  88  75  65 S10       29.86R HX  97
DES MOINES IA  CLOUDY    88  75  65 S8        29.88R HX  97
DAVENPORT IA   CLOUDY    77  74  90 SE10      29.89F
CHICAGO IL     PTSUNNY   90  69  50 VRB6      29.94F HX  94
EAU CLAIRE WI  PTSUNNY   82  70  66 S8        29.83F
LA CROSSE WI   PTSUNNY   82  72  71 S10       29.83S
$$

  *****  SOME NATIONAL WEATHER *****

CITY           SKY/WX    TMP DP  RH WIND       PRES   REMARKS
LA GUARDIA NY  PTSUNNY   92  63  38 SW6       29.93S HX  93
RALEIGH NC     PTSUNNY   89  70  53 SE12      29.97F HX  94
ATLANTA GA     PTSUNNY   94  71  47 NE14      29.99S HX 101
NEW ORLEANS LA MOSUNNY   94  66  39 VRB3      29.99F HX  97
OKLAHOMA CITY  MOSUNNY   94  73  50 S17G23    29.93F HX 103
ALBUQUERQUE NM MOSUNNY   92  43  18 VRB5      30.13F
SALT LAKE CITY SUNNY     73  22  14 NW10      30.25F
LOS ANGELES CA SUNNY     74  62  66 W12       29.90F
BOISE ID       SUNNY     74  37  26 W6        30.24F
SEATTLE WA     MOSUNNY   76  52  43 NW9       30.26F
$$

*** WEATHER ACROSS MANITOBA...SASKATCHEWAN AND ONTARIO ***
                ***ONTARIO***

CITY           SKY/WX    TMP DP  RH WIND       PRES   REMARKS
GERALDTON      MOSUNNY   82  63  51 S14G22    29.89F
THUNDER BAY    PTSUNNY   70  63  78 E13       29.84F
SIOUX LOOKOUT  LGT RAIN  72  70  94 S9G17     29.68F
TORONTO        PTSUNNY   90  57  33 SE10      29.98F
BIG TROUT LK   PTSUNNY   86  61  42 SE8       29.65F
PICKLE LAKE    CLOUDY    84  64  51 S15G24    29.71F
DRYDEN         LGT RAIN  72  68  88 SE16G22   29.64F
KENORA         PTSUNNY   75  72  88 S16G25    29.58F
$$
                *** MANITOBA***

CITY           SKY/WX    TMP DP  RH WIND       PRES   REMARKS
BRANDON        PTSUNNY   68  57  68 S24G36    29.41F
DAUPHIN        CLOUDY    72  61  68 SW17G25   29.34F
ISLAND LAKE    LGT RAIN  77  66  69 N7        29.52F
PILOT MOUND      N/A     66  55  68 S20         N/A
THE PAS        LGT RAIN  63  61  94 NE13G23   29.45F
THOMPSON       CLOUDY    64  63  94 NE10      29.63F
WINNIPEG       PTSUNNY   77  63  61 SW21G32   29.48S
LYNN LAKE        N/A    N/A N/A N/A MISG        N/A
CHURCHILL      PTSUNNY   57  52  82 NE16      29.73F
GILLAM         CLOUDY    75  59  57 NE6       29.66F
$$
                ***SASKATCHEWAN***

CITY           SKY/WX    TMP DP  RH WIND       PRES   REMARKS
ESTEVAN        LGT RAIN  57  55  94 SW26G36   29.28F FOG
KINDERSLEY     CLOUDY    68  52  56 NW20G30   29.83R
LLOYDMINSTER   PTSUNNY   70  50  49 NW14G26   29.83S
PRINCE ALBERT  LGT RAIN  61  57  88 N14       29.65R
REGINA         LGT RAIN  63  61  94 N9        29.32R FOG


USA.gov is the U.S. government's official web portal to all federal, state and local government web resources and services.